Weather History for OAKN - May, 2014

Change the Weather History Date:

Sunday, May 25, 2014

  Actual Average Record
Temperature  
Mean Temperature 82 °F -  
Max Temperature 95 °F - - ()
Min Temperature 68 °F - - ()
Cooling Degree Days 16    
Growing Degree Days 32 (Base 50)    
Moisture  
Dew Point 25 °F    
Average Humidity 14    
Maximum Humidity 33    
Minimum Humidity 6    
Precipitation  
Precipitation 0.00 in - - ()
Sea Level Pressure  
Sea Level Pressure 29.91 in    
Wind  
Wind Speed 6 mph ()    
Max Wind Speed 12 mph    
Max Gust Speed 23 mph    
Visibility 6.1 miles    
Events      
T = Trace of Precipitation, MM = Missing Value Source: Averaged Metar Reports

Daily Weather History Graph

Daily Weather History Graph

Search for Another Location

Airport or City:

Trip Planner

Search our weather history database for the weather conditions in past years. The results will help you decide how hot, cold, wet, or windy it might be!

Date:

Astronomy

May. 25, 2014 Rise Set
Actual Time 5:05 AM AFT 7:02 PM AFT
Civil Twilight 4:37 AM AFT 7:29 PM AFT
Nautical Twilight 4:04 AM AFT 8:02 PM AFT
Astronomical Twilight 3:29 AM AFT 8:37 PM AFT
Moon 2:39 AM AFT (5/25) 3:47 PM AFT (5/25)
Length of Visible Light 14h 51m
Length of Day
13h 57m
Waning Crescent, 13% of the Moon is Illuminated
May 25
Waning Crescent
May 28
New
Jun 6
First Quarter
Jun 13
Full
Jun 19
Last Quarter

Hourly Weather History & Observations

Time (AFT) Temp. Dew Point Humidity Pressure Visibility Wind Dir Wind Speed Gust Speed Precip Events Conditions
12:25 AM 73.4 °F 28.4 °F 19% 29.92 in 6.2 mi East 5.8 mph - N/A   Clear
1:25 AM 68.0 °F 37.4 °F 33% 29.89 in 6.2 mi NE 8.1 mph - N/A   Clear
2:25 AM 73.4 °F 28.4 °F 19% 29.92 in 6.2 mi NE 6.9 mph - N/A   Clear
3:25 AM 71.6 °F 32.0 °F 23% 29.92 in 6.2 mi NE 11.5 mph - N/A   Clear
4:25 AM 71.6 °F 24.8 °F 17% 29.92 in 6.2 mi ENE 10.4 mph - N/A   Clear
5:25 AM 71.6 °F 33.8 °F 25% 29.92 in 6.2 mi NE 11.5 mph 23.0 mph N/A   Clear
6:25 AM 69.8 °F 35.6 °F 28% 29.95 in 6.2 mi SSW 3.5 mph - N/A   Clear
7:25 AM 78.8 °F 33.8 °F 20% 29.98 in 6.2 mi ESE 10.4 mph - N/A   Clear
8:25 AM 80.6 °F 28.4 °F 15% 29.98 in 6.2 mi SE 9.2 mph - N/A   Clear
9:25 AM 84.2 °F 23.0 °F 11% 29.98 in 6.2 mi ESE 6.9 mph - N/A   Clear
12:25 PM 91.4 °F 17.6 °F 7% 29.95 in 6.2 mi SW 5.8 mph 18.4 mph N/A   Clear
1:25 PM 93.2 °F 24.8 °F 9% 29.92 in 6.2 mi WNW 10.4 mph - N/A   Clear
2:25 PM 95.0 °F 17.6 °F 6% 29.89 in 6.2 mi WSW 5.8 mph 19.6 mph N/A   Clear
3:25 PM 95.0 °F 17.6 °F 6% 29.89 in 6.2 mi West 6.9 mph 18.4 mph N/A   Clear
4:25 PM 95.0 °F 15.8 °F 6% 29.86 in 6.2 mi West 4.6 mph 17.3 mph N/A   Clear
5:25 PM 93.2 °F 17.6 °F 6% 29.86 in 6.2 mi West 11.5 mph - N/A   Partly Cloudy
6:25 PM 91.4 °F 21.2 °F 8% 29.86 in 6.2 mi NW 5.8 mph 17.3 mph N/A   Partly Cloudy
7:25 PM 87.8 °F 19.4 °F 8% 29.86 in 6.2 mi WNW 3.5 mph - N/A   Partly Cloudy
8:25 PM 86.0 °F 23.0 °F 10% 29.89 in 5.0 mi Variable 2.3 mph - N/A   Clear
9:25 PM 82.4 °F 24.8 °F 12% 29.89 in 6.2 mi SSW 3.5 mph - N/A   Clear
10:25 PM 78.8 °F 21.2 °F 12% 29.92 in 6.2 mi Variable 2.3 mph - N/A   Partly Cloudy
11:25 PM 75.2 °F 23.0 °F 14% 29.89 in 6.2 mi Variable 2.3 mph - N/A   Partly Cloudy